Date,TemperatureHighF,TemperatureAvgF,TemperatureLowF,DewpointHighF,DewpointAvgF,DewpointLowF,HumidityHigh,HumidityAvg,HumidityLow,PressureMaxIn,PressureMinIn,WindSpeedMaxMPH,WindSpeedAvgMPH,GustSpeedMaxMPH,PrecipitationSumIn
2013-1-1,29,22,10,28,19,7,94,87,80,30.21,30.06,7,2,0,0.00
2013-1-2,22,13,6,13,8,3,90,80,60,30.29,30.19,6,2,0,0.00
2013-1-3,31,24,16,27,19,8,88,81,70,30.33,30.20,12,7,0,0.00
2013-1-4,30,22,14,25,18,10,89,83,80,30.35,30.29,16,9,0,0.00
2013-1-5,36,28,19,32,25,17,93,86,78,30.32,30.09,13,6,0,0.01
2013-1-6,36,30,23,33,27,21,91,87,82,30.37,29.98,15,7,0,0.00
2013-1-7,35,24,14,29,21,13,94,88,77,30.43,30.20,19,4,0,0.00
2013-1-8,40,32,22,34,28,19,92,84,74,30.25,30.15,12,4,0,0.00
2013-1-9,49,41,33,41,35,28,90,82,70,30.49,30.13,17,6,0,0.00
2013-1-10,46,37,30,45,33,26,97,86,74,30.49,29.98,13,4,0,0.46
2013-1-11,57,53,45,55,50,44,100,91,80,29.98,29.72,24,11,0,0.44
2013-1-12,60,53,42,54,50,41,97,89,80,29.94,29.72,18,7,0,0.68
2013-1-13,42,31,19,41,30,16,97,94,86,30.24,29.73,20,3,0,0.49
2013-1-14,23,19,15,19,15,12,91,87,84,30.48,30.25,0,0,0,0.00
2013-1-15,29,24,17,24,20,15,91,85,76,30.44,30.12,7,2,0,0.00
2013-1-16,36,29,22,28,25,21,95,85,69,30.12,29.96,16,6,0,0.01
2013-1-17,36,31,24,30,25,19,95,80,61,30.43,30.08,10,3,0,0.03
2013-1-18,39,30,20,30,24,17,92,76,62,30.47,30.09,25,11,0,0.01
2013-1-19,51,43,37,38,34,29,81,71,62,30.10,29.83,24,15,0,0.00
2013-1-20,41,25,19,35,16,11,82,68,57,30.29,29.91,27,7,0,0.00
2013-1-21,20,14,8,14,6,-1,87,71,53,30.32,30.17,18,8,0,0.00
2013-1-22,16,10,4,4,1,-1,79,67,53,30.44,30.32,15,6,0,0.00
2013-1-23,24,18,11,18,9,3,80,66,53,30.39,30.13,12,4,0,0.00
2013-1-24,24,18,10,17,9,5,82,67,45,30.62,30.23,11,4,0,0.00
2013-1-25,28,23,18,23,16,9,90,77,56,30.39,30.04,12,5,0,0.00
2013-1-26,31,23,12,20,17,10,91,79,60,30.43,30.14,5,1,0,0.02
2013-1-27,38,29,21,37,25,17,96,85,76,30.42,30.04,21,5,0,0.12
2013-1-28,53,49,38,53,48,37,100,97,94,30.03,29.91,23,11,0,0.02
2013-1-29,64,58,54,60,57,54,100,94,85,29.91,29.27,25,15,0,0.39
2013-1-30,65,44,26,61,42,22,99,93,84,29.62,29.23,26,11,0,0.68
2013-1-31,26,21,9,22,16,3,92,81,72,30.17,29.64,26,12,0,0.00
2013-2-1,19,12,5,13,6,0,81,77,69,30.44,30.18,16,9,0,0.00
2013-2-2,28,22,14,25,19,9,91,87,77,30.27,30.01,16,8,0,0.00
2013-2-3,25,19,11,21,15,8,92,85,77,30.11,29.99,15,5,0,0.00
2013-2-4,39,30,23,32,24,18,86,81,74,30.10,29.79,12,6,0,0.01
2013-2-5,36,30,24,33,26,22,93,87,79,30.05,29.82,14,4,0,0.00
2013-2-6,38,32,30,31,27,24,89,81,69,30.26,30.06,14,3,0,0.00
2013-2-7,53,40,31,43,35,29,96,84,62,30.16,29.80,10,4,0,0.10
2013-2-8,36,32,30,34,30,27,96,90,87,30.36,29.85,12,4,0,0.00
2013-2-9,41,34,28,32,28,24,91,80,67,30.40,30.12,12,3,0,0.00
2013-2-10,52,42,34,49,38,28,95,87,73,30.13,29.63,22,9,0,0.28
2013-2-11,52,38,32,49,32,27,91,78,69,30.04,29.62,25,13,0,0.00
2013-2-12,37,30,26,32,27,25,94,88,81,30.13,29.94,12,4,0,0.00
2013-2-13,46,35,27,36,30,26,95,84,62,29.95,29.75,11,4,0,0.00
2013-2-14,45,38,34,39,34,30,94,86,73,29.98,29.76,20,8,0,0.00
2013-2-15,34,32,27,31,27,20,94,82,59,30.17,29.97,10,3,0,0.03
2013-2-16,27,22,19,22,15,11,89,74,62,30.17,30.12,14,5,0,0.00
2013-2-17,33,22,12,20,13,7,85,68,44,30.25,30.11,11,2,0,0.00
2013-2-18,54,41,27,46,34,19,93,76,68,30.11,29.51,27,13,0,0.34
2013-2-19,42,25,20,39,20,13,94,81,72,30.16,29.55,21,13,0,0.06
2013-2-20,26,19,10,19,13,6,81,77,72,30.35,30.16,12,5,0,0.00
2013-2-21,30,26,18,27,21,14,93,83,77,30.36,29.98,23,6,0,0.00
2013-2-22,36,33,28,34,31,26,98,94,84,29.98,29.83,17,7,0,0.14
2013-2-23,31,28,25,26,24,22,91,85,79,29.99,29.94,13,6,0,0.01
2013-2-24,39,30,22,31,25,20,92,83,67,30.14,29.99,8,2,0,0.01
2013-2-25,43,35,27,34,29,24,91,80,65,30.15,29.87,14,4,0,0.00
2013-2-26,36,35,33,35,32,29,98,91,76,29.87,29.39,17,7,0,1.18
2013-2-27,34,33,32,34,32,31,99,97,93,29.68,29.46,17,10,0,0.01
2013-2-28,37,34,32,35,32,29,97,92,89,30.01,29.68,11,5,0,0.01
2013-3-1,34,31,29,31,29,25,96,90,81,30.10,29.98,9,4,0,0.01
2013-3-2,31,29,27,27,24,21,90,84,74,30.14,30.08,9,4,0,0.00
2013-3-3,35,27,20,24,21,17,91,79,62,30.14,30.07,8,2,0,0.00
2013-3-4,38,31,23,31,26,20,93,83,64,30.12,29.95,11,4,0,0.02
2013-3-5,36,33,28,34,32,28,98,93,85,29.97,29.68,12,5,0,0.07
2013-3-6,32,30,28,30,29,28,98,95,93,30.29,29.82,11,5,0,0.17
2013-3-7,36,31,27,31,28,24,95,87,72,30.40,30.28,7,2,0,0.19
2013-3-8,40,31,20,32,26,18,95,84,65,30.49,30.35,7,2,0,0.00
2013-3-9,47,40,31,41,34,28,87,81,71,30.34,29.89,8,4,0,0.02
2013-3-10,65,56,46,52,46,38,84,70,55,29.89,29.66,29,8,0,0.04
2013-3-11,53,43,34,51,41,32,97,93,85,29.84,29.59,21,10,0,0.04
2013-3-12,34,33,33,32,31,30,91,90,88,29.89,29.84,14,10,0,0.00
2013-3-14,40,35,33,32,28,-100,94,81,65,30.31,30.14,12,-14,0,0.00
2013-3-15,50,39,29,43,36,28,95,88,71,30.14,29.71,8,4,0,0.01
2013-3-16,44,39,32,41,36,28,98,89,82,30.07,29.58,14,4,0,0.00
2013-3-17,39,34,31,31,28,26,85,78,69,30.15,29.96,16,8,0,0.00
2013-3-18,40,35,31,39,34,26,98,93,81,29.95,29.61,22,8,0,0.01
2013-3-19,40,30,24,25,21,16,80,69,48,30.11,29.85,23,11,0,0.00
2013-3-20,31,26,23,23,17,11,81,68,50,30.11,30.03,19,8,0,0.00
2013-3-21,35,25,16,23,15,11,85,68,47,30.07,30.00,12,4,0,0.00
2013-3-22,43,32,20,26,20,17,88,64,39,30.07,29.99,8,2,0,0.00
2013-3-23,46,38,31,29,25,22,77,61,47,30.08,29.93,11,3,0,0.00
2013-3-24,35,32,30,31,29,26,98,88,73,29.94,29.45,17,8,0,0.03
2013-3-25,34,31,28,33,30,28,98,97,90,30.03,29.55,12,5,0,0.34
2013-3-26,38,34,30,31,29,26,92,83,68,30.26,30.03,11,4,0,0.02
2013-3-27,41,33,27,31,27,24,90,78,52,30.34,30.26,10,4,0,0.00
2013-3-28,46,36,27,33,28,23,87,73,49,30.37,30.29,8,2,0,0.00
2013-3-29,54,41,31,38,33,29,93,76,49,30.31,30.20,6,1,0,0.00
2013-3-30,56,45,32,42,36,30,91,74,49,30.22,29.91,12,3,0,0.00
2013-3-31,60,50,44,46,43,36,98,79,56,29.90,29.71,17,6,0,0.03
2013-4-1,44,38,32,36,26,19,79,63,38,30.16,29.84,15,4,0,0.00
2013-4-2,46,35,25,24,20,17,83,59,33,30.30,30.15,11,2,0,0.00
2013-4-3,47,36,26,25,22,17,86,58,37,30.43,30.28,7,2,0,0.00
2013-4-4,58,43,30,31,25,22,77,52,25,30.32,29.98,10,2,0,0.00
2013-4-5,57,46,37,37,29,22,75,53,28,30.14,29.97,8,4,0,0.00
2013-4-6,71,54,38,43,36,26,73,53,34,30.12,29.73,23,10,0,0.00
2013-4-7,71,62,52,47,43,39,76,52,32,29.89,29.69,26,7,0,0.00
2013-4-8,73,62,50,61,55,40,96,77,61,29.90,29.73,31,9,0,0.13
2013-4-9,79,67,56,63,58,53,92,76,51,29.93,29.81,27,8,0,0.00
2013-4-10,76,64,49,67,60,48,99,88,64,29.84,29.67,24,8,0,1.49
2013-4-11,63,57,45,62,56,44,99,97,93,29.73,29.54,18,6,0,0.60
2013-4-12,45,41,38,43,36,32,92,84,77,29.89,29.59,22,11,0,0.00
2013-4-13,48,42,39,40,36,33,89,81,67,29.99,29.89,18,8,0,0.00
2013-4-14,72,55,41,54,45,37,88,71,45,29.99,29.73,12,4,0,0.00
2013-4-15,66,60,55,61,55,48,92,83,69,29.89,29.76,17,7,0,0.06
2013-4-16,62,49,46,58,47,43,98,91,77,30.18,29.85,10,4,0,1.44
2013-4-17,73,57,46,69,53,41,97,87,81,30.19,29.82,22,6,0,0.17
2013-4-18,73,64,48,67,61,47,99,92,80,29.80,29.53,30,10,0,1.82
2013-4-19,48,40,36,47,35,31,96,84,74,29.95,29.53,24,14,0,0.37
2013-4-20,46,39,33,34,30,28,90,72,53,30.41,29.95,11,4,0,0.00
2013-4-21,54,43,33,39,32,27,82,67,47,30.52,30.34,10,4,0,0.00
2013-4-22,67,53,37,47,39,32,83,62,35,30.34,30.05,8,2,0,0.00
2013-4-23,64,55,43,57,50,42,98,83,66,30.06,29.76,17,6,0,0.85
2013-4-24,49,42,37,42,37,34,97,86,59,30.19,29.81,10,5,0,0.35
2013-4-25,52,45,37,40,34,31,88,69,45,30.34,30.16,23,7,0,0.00
2013-4-26,64,50,37,50,40,33,85,70,49,30.41,30.29,10,3,0,0.00
2013-4-27,64,54,43,54,46,39,96,76,50,30.30,29.96,14,3,0,0.11
2013-4-28,60,56,53,58,55,53,100,96,90,29.96,29.80,7,3,0,0.26
2013-4-29,70,61,53,61,56,52,97,84,63,29.94,29.82,12,5,0,0.00
2013-4-30,80,67,54,65,59,52,91,75,53,29.95,29.85,14,6,0,0.00
2013-5-1,82,71,56,62,58,53,88,66,44,30.09,29.95,10,2,0,0.00
2013-5-2,81,70,61,61,58,55,84,67,42,30.11,29.98,10,3,0,0.00
2013-5-3,74,62,50,63,56,47,97,82,61,30.00,29.84,12,4,0,0.04
2013-5-4,69,62,54,58,52,47,92,71,55,29.97,29.87,14,4,0,0.00
2013-5-5,65,58,54,57,53,50,97,83,65,29.98,29.90,12,4,0,0.02
2013-5-6,70,62,54,58,53,47,85,73,62,29.95,29.86,10,4,0,0.00
2013-5-7,75,65,57,60,56,51,92,72,51,29.97,29.90,11,2,0,0.00
2013-5-8,79,68,54,62,56,52,97,68,44,29.99,29.90,7,1,0,0.00
2013-5-9,76,64,57,62,58,54,96,84,52,29.98,29.81,13,3,0,0.67
2013-5-10,68,59,45,62,56,43,95,91,83,29.91,29.77,12,6,0,0.00
2013-5-11,64,51,44,56,44,33,96,78,39,30.02,29.85,17,5,0,0.00
2013-5-12,57,47,37,36,33,28,86,60,35,30.11,30.02,13,4,0,0.00
2013-5-13,65,52,38,40,34,29,85,55,26,30.19,30.06,9,3,0,0.00
2013-5-14,83,67,51,64,52,39,73,59,52,30.07,29.74,19,8,0,0.00
2013-5-15,84,76,71,65,60,54,72,57,46,29.80,29.73,20,9,0,0.00
2013-5-16,82,72,64,66,63,55,95,73,43,29.88,29.76,12,2,0,0.06
2013-5-17,82,71,63,67,64,62,98,80,51,29.98,29.91,15,2,0,0.40
2013-5-18,80,69,61,69,65,61,99,86,60,30.02,29.91,7,1,0,0.01
2013-5-19,85,74,62,69,66,61,99,77,54,29.93,29.76,11,3,0,0.00
2013-5-20,84,77,72,72,70,68,92,79,63,29.84,29.72,21,7,0,0.00
2013-5-21,83,74,65,70,64,-100,93,74,55,29.79,29.67,22,-1,0,0.09
2013-5-22,75,69,63,66,63,58,92,80,63,29.74,29.63,23,7,0,0.03
2013-5-23,64,55,45,60,51,34,92,85,66,30.18,29.74,13,6,0,0.01
2013-5-24,65,52,38,44,40,34,95,68,40,30.37,30.18,10,3,0,0.00
2013-5-25,61,52,42,48,42,36,87,70,53,30.37,30.20,6,1,0,0.01
2013-5-26,66,57,47,56,50,43,95,77,51,30.29,30.12,9,2,0,0.50
2013-5-27,77,64,58,70,61,56,98,91,78,30.12,29.81,10,4,0,0.40
2013-5-28,80,72,63,71,67,63,99,85,70,29.89,29.79,17,7,0,0.00
2013-5-29,84,76,69,70,66,62,83,73,51,29.95,29.86,18,8,0,0.00
2013-5-30,84,76,69,71,68,65,86,76,61,29.96,29.84,19,7,0,0.00
2013-5-31,77,71,64,72,68,63,97,89,78,29.93,29.76,18,6,0,0.46
2013-6-1,74,68,62,71,65,61,97,90,80,29.83,29.70,24,7,0,0.57
2013-6-2,67,61,54,64,59,50,97,91,83,30.00,29.75,10,4,0,0.01
2013-6-3,67,58,46,51,48,43,90,72,46,30.08,29.98,6,2,0,0.00
2013-6-4,74,64,50,55,51,47,91,64,42,30.12,30.02,7,2,0,0.00
2013-6-5,79,68,57,61,56,52,83,65,48,30.04,29.83,6,2,0,0.00
2013-6-6,77,68,60,64,57,51,76,67,56,29.84,29.75,7,3,0,0.00
2013-6-7,71,65,59,64,59,53,93,81,69,29.86,29.78,8,2,0,0.00
2013-6-8,79,67,55,63,56,51,94,70,45,29.95,29.86,7,1,0,0.00
2013-6-9,82,72,65,66,62,57,93,71,45,29.97,29.78,9,3,0,0.01
2013-6-10,78,70,64,67,65,64,99,85,65,29.81,29.71,10,4,0,0.01
2013-6-11,84,74,62,70,66,60,93,77,57,29.92,29.81,9,3,0,0.06
2013-6-12,88,80,71,77,73,69,96,80,65,29.86,29.57,17,5,0,0.00
2013-6-13,76,69,61,69,62,56,98,79,52,29.97,29.56,12,4,0,0.52
2013-6-14,80,67,55,65,59,53,95,76,52,30.05,29.93,9,2,0,0.00
2013-6-15,81,71,62,68,64,60,92,78,58,30.04,29.87,16,3,0,0.00
2013-6-16,78,72,67,71,68,64,94,85,75,29.93,29.86,13,4,0,0.04
2013-6-17,86,76,68,74,68,62,100,78,45,29.91,29.82,5,1,0,0.00
2013-6-18,83,73,64,69,65,62,97,76,54,29.95,29.83,8,3,0,0.00
2013-6-19,80,71,61,64,61,58,92,73,55,30.06,29.95,6,2,0,0.00
2013-6-20,86,76,64,68,64,59,86,69,49,30.12,30.05,9,2,0,0.00
2013-6-21,88,75,64,71,66,61,93,76,54,30.11,29.92,11,2,0,0.27
2013-6-22,85,75,68,77,70,66,94,85,68,30.07,29.94,11,4,0,0.02
2013-6-23,85,75,65,75,68,65,99,82,58,30.06,29.95,13,3,0,0.00
2013-6-24,86,76,69,75,70,65,99,82,65,30.06,29.89,10,4,0,0.02
2013-6-25,90,78,69,77,72,66,96,81,57,29.95,29.79,12,5,0,0.12
2013-6-26,83,74,67,76,70,67,98,89,74,29.86,29.68,14,4,0,0.10
2013-6-27,89,78,69,76,71,69,100,81,57,29.75,29.64,9,3,0,0.00
2013-6-28,85,74,65,69,65,61,97,75,47,29.66,29.55,14,4,0,0.19
2013-6-29,72,67,63,68,65,62,99,95,84,29.65,29.53,8,2,0,0.14
2013-6-30,73,68,63,67,64,61,99,90,69,29.85,29.65,10,3,0,0.76
2013-7-1,76,69,65,68,63,60,90,82,71,29.93,29.84,16,5,0,0.07
2013-7-2,71,65,62,66,62,58,95,89,82,29.98,29.91,7,3,0,0.00
2013-7-3,77,69,64,68,65,63,99,89,70,30.05,29.96,8,2,0,0.00
2013-7-4,77,69,57,68,63,57,100,82,59,30.10,30.02,4,1,0,0.01
2013-7-5,83,73,64,71,67,64,100,83,60,30.07,29.99,8,1,0,0.00
2013-7-6,72,70,67,71,69,67,99,96,89,30.04,29.97,6,1,0,0.45
2013-7-7,85,73,65,74,69,64,100,87,65,30.04,29.95,9,3,0,0.00
2013-7-8,87,77,70,76,72,69,96,84,68,30.05,29.95,12,5,0,0.00
2013-7-9,92,81,75,79,75,72,91,82,63,29.98,29.86,12,4,0,0.00
2013-7-10,84,77,69,78,73,64,95,87,75,29.94,29.77,20,4,0,0.76
2013-7-11,79,70,61,65,61,57,89,74,51,30.02,29.93,8,2,0,0.00
2013-7-12,80,69,55,66,60,54,97,74,47,30.09,30.02,6,2,0,0.00
2013-7-13,83,72,61,69,65,59,95,77,58,30.09,30.03,12,2,0,0.00
2013-7-14,88,78,66,76,70,64,94,78,60,30.14,30.07,8,2,0,0.00
2013-7-15,89,80,73,77,74,71,96,81,65,30.22,30.13,7,1,0,0.00
2013-7-16,92,81,70,75,72,69,98,76,52,30.28,30.21,5,1,0,0.00
2013-7-17,92,82,69,77,73,69,98,78,54,30.29,30.13,6,1,0,0.00
2013-7-18,93,82,72,79,74,71,97,79,53,30.15,29.95,8,2,0,0.00
2013-7-19,92,83,74,78,75,73,96,78,60,29.97,29.78,15,6,0,0.00
2013-7-20,80,76,70,75,72,69,98,89,81,29.87,29.75,10,4,0,0.22
2013-7-21,83,74,66,75,71,65,100,91,75,29.92,29.81,6,1,0,0.01
2013-7-22,83,74,67,73,70,67,100,88,68,29.83,29.73,5,2,0,0.93
2013-7-23,84,75,65,72,69,58,95,82,65,29.86,29.68,13,4,0,0.00
2013-7-24,73,65,55,59,56,53,93,75,56,29.99,29.86,8,3,0,0.00
2013-7-25,78,66,53,62,58,52,99,77,54,30.08,29.99,8,1,0,0.00
2013-7-26,78,68,58,66,61,55,95,81,57,30.05,29.88,11,3,0,0.00
2013-7-27,74,68,57,66,60,51,96,77,54,29.91,29.82,13,5,0,0.00
2013-7-28,72,62,51,56,52,48,92,73,51,30.01,29.89,18,5,0,0.00
2013-7-29,77,65,53,63,56,51,96,75,51,30.14,30.01,11,2,0,0.00
2013-7-30,72,66,57,67,62,55,95,88,75,30.16,30.04,6,1,0,0.08
2013-7-31,77,70,65,72,68,64,100,94,84,30.05,29.90,7,3,0,0.21
2013-8-1,81,71,61,68,62,58,100,77,48,29.97,29.90,14,3,0,0.00
2013-8-2,75,63,57,68,59,55,95,87,70,29.95,29.88,12,2,0,0.00
2013-8-3,81,72,64,70,65,56,100,81,57,30.05,29.89,8,2,0,0.24
2013-8-4,79,67,55,62,58,54,97,75,47,30.14,30.05,6,1,0,0.00
2013-8-5,79,67,57,66,62,56,99,83,56,30.08,29.88,9,2,0,0.00
2013-8-6,81,72,67,73,68,64,97,89,76,29.90,29.83,7,2,0,0.00
2013-8-7,84,76,70,77,73,69,99,91,79,29.86,29.79,12,4,0,0.00
2013-8-8,74,72,69,73,71,68,99,98,95,29.91,29.84,5,2,0,0.79
2013-8-9,82,72,63,71,66,62,98,83,58,29.99,29.89,5,1,0,0.00
2013-8-10,83,74,66,72,68,65,97,81,58,30.06,29.99,6,1,0,0.00
2013-8-11,82,71,61,71,66,60,100,85,62,30.08,30.01,5,1,0,0.00
2013-8-12,83,72,63,72,68,63,98,86,65,30.04,29.83,7,2,0,0.01
2013-8-13,72,66,57,68,60,51,99,82,55,30.08,29.83,15,3,0,0.00
2013-8-14,57,52,48,52,50,48,98,92,80,30.16,30.08,2,0,0,0.00
2013-8-15,73,61,60,59,46,-100,91,70,51,30.10,0.00,4,-35,0,0.00
2013-8-16,75,66,58,62,59,57,97,80,55,30.14,30.09,5,1,0,0.00
2013-8-17,78,68,58,63,59,56,95,75,55,30.18,30.10,7,2,0,0.00
2013-8-18,83,71,59,67,63,57,95,78,56,30.15,30.05,5,1,0,0.00
2013-8-19,84,72,59,68,64,58,99,79,51,30.10,30.01,7,1,0,0.00
2013-8-20,86,74,62,71,66,61,98,78,52,30.10,30.01,9,1,0,0.00
2013-8-21,88,76,65,73,68,64,98,79,53,30.08,29.98,11,2,0,0.00
2013-8-22,77,72,69,71,69,67,96,88,78,30.08,29.96,6,2,0,0.00
2013-8-23,82,70,63,71,66,62,100,88,62,30.11,30.03,6,1,0,0.01
2013-8-24,83,72,59,64,60,55,96,69,38,30.23,30.11,6,1,0,0.00
2013-8-25,87,74,60,66,62,56,90,69,43,30.25,30.15,10,2,0,0.00
2013-8-26,90,76,63,75,68,60,96,78,51,30.18,30.01,13,4,0,0.00
2013-8-27,92,80,72,77,73,69,94,80,59,30.03,29.89,12,5,0,0.00
2013-8-28,92,80,72,78,73,69,95,78,60,29.95,29.85,10,5,0,0.00
2013-8-29,88,78,71,74,71,68,100,82,56,30.01,29.93,6,2,0,0.00
2013-8-30,94,79,66,79,72,65,97,81,53,29.94,29.75,11,3,0,0.37
2013-8-31,89,76,67,75,71,67,98,86,63,29.78,29.67,11,2,0,0.35
2013-9-1,77,72,68,73,70,68,99,95,88,29.76,29.70,8,2,0,0.01
2013-9-2,82,73,65,71,67,61,100,81,54,29.90,29.71,11,3,0,0.00
2013-9-3,76,65,53,61,57,52,99,79,55,30.04,29.90,7,1,0,0.00
2013-9-4,82,67,52,64,59,51,99,78,48,30.12,30.02,8,2,0,0.01
2013-9-5,82,69,60,66,62,58,96,80,58,30.16,30.07,6,1,0,0.00
2013-9-6,84,71,58,67,60,52,87,70,52,30.17,30.02,5,1,0,0.00
2013-9-7,88,76,64,69,66,62,96,73,47,30.02,29.87,13,3,0,0.00
2013-9-8,88,76,67,73,70,66,97,81,58,29.93,29.86,5,1,0,0.00
2013-9-9,93,79,66,75,71,65,99,79,54,29.93,29.83,15,5,0,0.00
2013-9-10,96,84,74,75,72,66,95,70,37,30.03,29.90,14,6,0,0.00
2013-9-11,95,82,74,73,69,63,94,67,35,30.05,29.94,14,6,0,0.00
2013-9-12,83,73,63,71,65,52,98,79,41,29.97,29.83,9,3,0,0.07
2013-9-13,68,60,52,57,50,45,86,70,47,30.09,29.97,11,4,0,0.00
2013-9-14,73,57,39,48,44,38,98,67,31,30.18,30.05,6,1,0,0.00
2013-9-15,77,60,47,60,51,43,97,74,38,30.09,29.96,13,3,0,0.08
2013-9-16,67,61,53,60,56,49,98,86,66,30.27,30.06,10,2,0,0.00
2013-9-17,75,61,49,56,52,47,95,76,49,30.29,30.11,8,2,0,0.01
2013-9-18,83,68,60,67,59,55,85,74,58,30.11,29.96,11,3,0,0.00
2013-9-19,84,74,66,75,66,-100,99,82,72,30.01,29.83,15,-22,0,0.17
2013-9-20,76,72,64,72,69,61,98,91,79,29.86,29.75,16,6,0,0.23
2013-9-21,70,61,53,58,53,49,97,75,50,29.89,29.75,10,3,0,0.01
2013-9-22,69,58,46,54,49,45,98,77,50,30.00,29.89,7,2,0,0.00
2013-9-23,72,58,45,53,48,44,95,72,44,30.07,29.99,7,2,0,0.00
2013-9-24,77,61,47,58,52,45,94,73,48,30.04,29.86,6,2,0,0.00
2013-9-25,79,65,54,61,55,50,88,71,50,29.90,29.83,7,2,0,0.00
2013-9-26,80,64,52,59,54,50,95,71,39,30.03,29.90,6,1,0,0.00
2013-9-27,82,66,53,59,52,48,87,63,31,30.13,30.03,5,1,0,0.00
2013-9-28,82,67,53,62,56,50,93,71,44,30.10,29.95,14,3,0,0.00
2013-9-29,72,65,58,62,58,53,98,81,59,29.98,29.92,12,4,0,0.24
2013-9-30,74,63,57,62,58,53,98,84,60,29.98,29.88,13,2,0,0.00
2013-10-1,78,67,60,67,64,60,99,90,66,30.01,29.92,11,4,0,0.00
2013-10-2,78,69,63,71,67,62,100,93,74,30.05,29.97,7,1,0,0.01
2013-10-3,82,73,67,70,67,65,99,85,61,29.98,29.86,15,5,0,0.05
2013-10-4,83,73,66,73,68,64,97,86,65,29.98,29.91,17,4,0,0.04
2013-10-5,80,72,67,73,70,66,98,92,74,29.95,29.80,19,5,0,0.14
2013-10-6,67,58,48,66,54,41,99,85,58,29.80,29.68,11,5,0,0.53
2013-10-7,66,53,45,52,47,43,97,83,49,30.11,29.78,10,4,0,0.12
2013-10-8,74,59,47,55,50,46,96,75,45,30.21,30.11,5,1,0,0.01
2013-10-9,74,58,46,53,48,43,92,72,42,30.21,30.11,9,1,0,0.00
2013-10-10,77,61,47,59,53,46,98,77,48,30.16,30.03,6,0,0,0.00
2013-10-11,78,62,47,57,50,45,94,69,35,30.08,29.96,5,0,0,0.00
2013-10-12,77,65,52,63,57,49,90,77,57,30.10,29.98,13,3,0,0.00
2013-10-13,70,59,47,57,44,37,91,62,31,30.35,30.10,11,2,0,0.00
2013-10-14,69,54,39,49,43,36,94,71,41,30.35,30.15,7,2,0,0.00
2013-10-15,66,59,51,63,56,45,97,89,76,30.15,29.84,13,4,0,0.04
2013-10-16,64,53,46,62,48,43,95,83,72,29.95,29.86,12,4,0,0.00
2013-10-17,55,47,41,48,44,39,97,89,67,29.95,29.86,12,3,0,0.04
2013-10-18,62,50,44,50,44,41,92,81,59,29.97,29.90,11,5,0,0.00
2013-10-19,54,46,41,44,40,35,96,81,51,29.97,29.86,13,4,0,0.25
2013-10-20,64,52,40,48,42,37,88,70,51,29.95,29.84,21,10,0,0.00
2013-10-21,55,49,38,47,43,29,86,78,66,29.99,29.87,13,6,0,0.00
2013-10-22,49,38,27,38,32,25,95,81,51,30.02,29.85,11,2,0,0.12
2013-10-23,46,39,34,38,34,33,97,84,64,30.05,29.84,10,4,0,0.09
2013-10-24,42,38,35,36,32,26,95,78,58,30.30,30.03,8,3,0,0.01
2013-10-25,49,38,28,33,29,25,91,73,51,30.44,30.21,11,4,0,0.00
2013-10-26,57,45,36,42,34,28,79,66,48,30.21,29.89,19,8,0,0.00
2013-10-27,56,41,28,38,32,27,95,72,42,30.10,30.01,10,2,0,0.00
2013-10-28,61,45,31,40,33,28,92,69,36,30.29,30.06,6,1,0,0.00
2013-10-29,58,47,38,47,41,35,93,80,60,30.33,30.16,6,1,0,0.02
2013-10-30,65,57,50,64,56,47,99,97,88,30.15,29.87,10,2,0,0.08
2013-10-31,65,61,51,64,60,50,98,96,94,29.86,29.25,26,10,0,1.29
2013-11-1,53,49,45,50,46,43,96,88,75,29.75,29.40,19,7,0,0.01
2013-11-2,50,45,40,45,42,39,98,89,68,30.12,29.74,9,3,0,0.02
2013-11-3,55,42,32,44,37,31,99,84,55,30.31,30.12,7,1,0,0.01
2013-11-4,57,48,42,45,41,38,87,78,62,30.31,30.19,13,3,0,0.00
2013-11-5,57,52,46,50,47,42,94,82,71,30.31,30.05,13,2,0,0.02
2013-11-6,59,52,39,54,48,37,97,89,72,30.11,29.84,22,9,0,0.17
2013-11-7,48,38,30,37,33,28,94,82,57,30.29,30.11,14,4,0,0.00
2013-11-8,51,39,30,36,32,28,95,77,52,30.36,30.12,8,3,0,0.01
2013-11-9,61,50,42,46,39,32,78,66,54,30.11,29.95,20,9,0,0.00
2013-11-10,48,41,35,39,34,31,87,76,57,30.34,30.10,10,3,0,0.00
2013-11-11,50,41,31,42,36,30,96,83,64,30.38,30.07,14,6,0,0.05
2013-11-12,33,29,23,30,26,21,96,88,77,30.65,30.38,10,3,0,0.05
2013-11-13,39,29,20,24,22,18,91,76,53,30.64,30.31,16,6,0,0.00
2013-11-14,52,40,31,30,26,24,74,59,36,30.31,30.06,21,10,0,0.00
2013-11-15,55,45,41,38,32,27,84,61,47,30.06,29.99,14,7,0,0.00
2013-11-16,64,53,40,59,50,37,95,88,71,30.00,29.69,24,9,0,0.08
2013-11-17,67,62,57,64,60,55,96,93,90,29.70,29.26,23,15,0,0.28
2013-11-18,48,41,31,39,29,-100,88,69,53,30.22,0.00,17,-24,0,0.00
2013-11-19,43,34,27,34,29,25,92,83,65,30.36,30.22,10,2,0,0.00
2013-11-20,47,38,29,38,32,26,90,80,65,30.31,30.13,12,4,0,0.00
2013-11-21,50,47,43,50,45,38,99,91,71,30.21,30.13,14,5,0,0.52
2013-11-22,50,42,31,50,40,28,99,92,82,30.44,30.14,13,4,0,0.03
2013-11-23,31,26,18,28,20,11,92,78,61,30.66,30.41,14,5,0,0.00
2013-11-24,28,19,14,16,11,8,80,72,50,30.72,30.50,5,2,0,0.00
2013-11-25,33,28,19,26,19,13,87,70,59,30.50,30.16,15,8,0,0.00
2013-11-26,38,33,29,31,28,25,92,82,71,30.18,29.98,13,4,0,0.00
2013-11-27,29,22,16,26,15,11,89,75,58,30.31,30.05,11,4,0,0.00
2013-11-28,37,28,20,23,19,15,85,71,52,30.47,30.23,18,6,0,0.00
2013-11-29,38,27,15,25,21,13,93,78,57,30.64,30.47,8,1,0,0.00
2013-11-30,52,37,28,33,28,24,87,71,45,30.47,30.11,16,5,0,0.00
2013-12-1,50,40,32,38,33,28,91,78,62,30.11,29.96,7,3,0,0.00
2013-12-2,44,38,32,39,35,30,96,88,78,29.96,29.76,10,3,0,0.04
2013-12-3,50,44,38,49,43,37,99,96,94,29.78,29.71,12,4,0,0.00
2013-12-4,62,53,42,59,52,41,100,97,87,29.76,29.56,15,5,0,0.02
2013-12-5,57,34,25,53,30,19,91,84,77,30.24,29.68,14,6,0,0.01
2013-12-6,26,24,17,20,18,13,83,79,77,30.49,30.21,8,3,0,0.00
2013-12-7,25,18,12,14,11,8,85,75,57,30.68,30.50,8,3,0,0.00
2013-12-8,29,25,18,28,21,14,96,86,76,30.55,29.99,14,6,0,0.00
2013-12-9,29,24,18,28,20,11,99,83,71,30.25,29.99,16,8,0,0.00
2013-12-10,28,18,7,16,11,3,84,72,55,30.35,30.15,25,7,0,0.00
2013-12-11,27,18,7,22,14,1,96,81,72,30.60,30.31,13,3,0,0.00
2013-12-12,26,14,2,10,3,-2,83,65,39,30.60,30.32,19,7,0,0.00
2013-12-13,39,27,17,31,19,9,97,73,52,30.32,30.09,12,5,0,0.00
2013-12-14,34,31,27,33,30,25,98,97,93,30.11,29.77,9,4,0,0.13
2013-12-15,29,20,14,27,17,11,93,89,85,30.13,29.96,16,8,0,0.00
2013-12-16,27,20,15,26,18,13,97,93,88,30.14,30.03,8,3,0,0.00
2013-12-17,28,23,18,26,21,17,97,94,83,30.16,30.03,13,7,0,0.00
2013-12-18,40,25,10,29,18,7,90,76,60,30.25,29.96,21,7,0,0.07
2013-12-19,43,41,39,41,36,29,95,84,65,29.97,29.82,18,8,0,0.22
2013-12-20,58,51,40,57,50,39,98,96,90,29.82,29.69,17,9,0,0.13
2013-12-21,40,36,34,38,36,33,99,98,94,29.81,29.43,11,4,0,1.73
2013-12-22,37,35,30,36,34,28,99,96,92,30.09,29.45,18,7,0,0.02
2013-12-23,30,24,12,28,20,8,93,86,77,30.47,30.10,13,7,0,0.00
2013-12-24,20,12,5,16,8,1,92,82,75,30.62,30.46,13,5,0,0.00
2013-12-25,30,26,20,29,20,15,95,80,73,30.48,30.16,14,9,0,0.00
2013-12-26,36,30,20,29,25,16,95,81,70,30.37,30.16,16,7,0,0.00
2013-12-27,45,36,28,36,31,26,91,82,70,30.36,30.20,15,7,0,0.00
2013-12-28,52,41,36,39,34,32,86,79,60,30.20,29.93,14,7,0,0.00
2013-12-29,40,34,25,34,30,22,96,87,78,30.11,29.80,13,6,0,0.00
2013-12-30,24,19,16,21,15,12,89,84,78,30.33,30.11,11,4,0,0.00
2013-12-31,28,22,16,22,17,12,90,82,73,30.41,30.20,17,5,0,0.00
2014-1-1,33,26,22,29,24,19,93,88,84,30.27,30.07,7,4,0,0.00
2014-1-2,21,16,10,20,13,6,93,90,82,30.39,29.99,13,6,0,0.00